Location: Brede
(50.9167°N, 0.6000°E)
Time: 02:30:10
(UTC+00:00)

Cosmos 2098 Rocket - Pass Details

Date: 08 August 2020
Orbit: 367 x 1184 km, 82.9° (Epoch: 19 September)

Event Time Altitude Azimuth Distance (km) Brightness Sun altitude
Rises 02:13:56 0° 351° (N) 2,890 7.3 -17.2°
Reaches altitude 10° 02:15:57 10° 353° (N) 2,090 6.5 -17.0°
Maximum altitude 02:20:39 76° 80° (E) 809 3.7 -16.6°
Drops below altitude 10° 02:26:35 10° 166° (SSE) 2,623 5.9 -16.1°
Enters shadow 02:26:48 - 167° (SSE) 2,705 5.9 -16.1°
